Location: Hanover
(52.3667°N, 9.7167°E)
Time: 02:34:15
(UTC+01:00)

CUBESAT XI-V - Pass Details

Date: 13 November 2024
Orbit: 651 x 673 km, 98.2° (Epoch: 08 December)

Event Time Altitude Azimuth Distance (km) Brightness Sun altitude
Rises 17:40:59 0° 2° (N) 3,037 ? -10.7°
Reaches altitude 10° 17:44:35 10° 332° (NNW) 2,113 ? -11.2°
Maximum altitude 17:46:20 12° 310° (NW) 1,967 ? -11.5°
Drops below altitude 10° 17:48:05 10° 287° (WNW) 2,103 ? -11.7°
Sets 17:51:39 0° 257° (WSW) 3,006 ? -12.3°
